Theta_e
333 333 333 332 331 329 326 329 329 323 319 319 317 316 312 311 310 309 307 303 300 299 296 296 295 295 295 294 294 294 293 294 293 293 293 293 292 292
334 334 334 333 332 330 329 330 329 328 324 321 318 317 311 310 310 311 308 305 302 300 298 296 295 295 295 295 294 294 294 294 293 293 293 293 292 292
333 333 333 333 333 331 331 332 330 328 327 324 318 316 316 312 310 310 309 307 305 302 301 299 297 295 295 295 294 294 294 294 293 293 293 292 292 291
333 334 333 333 333 331 331 331 331 329 327 326 320 319 317 316 312 311 310 308 307 306 302 301 301 300 298 295 294 294 294 294 293 293 293 292 292 291
333 334 333 333 332 331 331 331 331 330 327 325 321 319 317 315 312 311 312 309 306 305 304 302 302 301 301 298 295 294 294 294 293 293 293 292 291 291
332 333 332 332 332 331 331 330 330 330 327 324 322 317 315 313 311 311 311 310 308 305 304 303 302 302 301 298 296 295 294 294 293 293 292 292 291 291
331 331 331 331 331 330 330 330 330 330 326 323 323 319 315 312 311 311 310 309 307 305 304 303 302 301 299 297 295 295 294 293 293 292 292 291 291 290
332 329 331 331 330 330 330 330 330 329 327 323 322 321 315 312 311 310 309 308 307 306 304 303 303 301 299 298 297 295 294 293 293 292 292 291 290 290
330 329 328 326 326 329 329 329 328 323 323 322 322 317 313 313 311 309 308 307 306 306 305 302 300 299 298 298 297 295 293 292 292 292 291 291 290 290
327 324 325 326 327 328 329 329 327 323 322 320 314 313 312 312 310 308 304 304 305 305 304 300 298 299 299 296 294 294 293 292 292 292 291 291 290 290
327 326 326 326 326 326 327 325 323 322 319 319 314 311 310 307 304 303 304 303 303 301 299 297 296 296 295 294 293 293 293 292 292 292 292 291 291 290
323 326 325 323 322 323 325 324 321 319 317 317 308 306 303 301 300 299 299 298 300 300 299 298 296 294 294 294 294 293 293 293 293 293 293 293 292 292
324 322 321 322 323 319 319 317 316 318 312 305 303 301 300 299 298 298 298 299 298 301 301 299 296 294 293 292 293 293 293 293 294 294 294 293 294 293
320 320 319 318 317 316 316 314 313 309 303 301 300 299 299 298 297 297 297 296 297 299 300 297 294 293 292 292 293 295 295 295 295 295 295 296 295 294
319 319 317 315 314 314 314 314 311 305 301 299 299 298 298 298 297 296 296 296 295 295 294 293 292 292 292 293 294 298 297 300 299 298 297 296 297 296
317 315 314 314 314 313 313 309 303 302 301 299 298 298 298 297 297 296 296 295 295 294 294 295 296 298 299 300 298 300 300 298 298 298 297 297 296 295
313 312 312 312 310 309 307 305 302 301 300 300 298 298 297 296 295 295 295 295 296 297 298 301 302 301 301 302 301 301 299 298 298 298 297 296 296 295
309 309 308 307 306 304 300 299 299 301 300 299 297 297 296 296 296 297 298 299 299 300 300 300 299 300 300 300 301 300 299 299 298 297 297 296 296 295
304 305 305 304 302 300 300 300 300 300 298 297 297 297 297 297 298 298 298 299 300 300 301 302 302 301 300 300 300 300 298 297 297 296 295 294 294 294
302 301 301 301 300 300 300 300 300 298 298 298 297 297 297 298 299 299 299 299 300 300 301 302 301 300 299 298 297 297 296 296 296 295 294 293 293 292
300 301 300 300 300 300 299 299 299 299 299 300 300 300 300 299 300 301 301 301 300 300 299 299 298 296 296 296 294 295 294 295 294 294 293 293 292 292
292 293 295 297 298 298 299 299 299 299 298 298 299 299 299 300 299 299 298 298 297 297 296 295 294 293 294 293 292 293 292 293 292 293 294 293 292 290
294 295 295 295 294 294 293 292 293 293 292 295 294 295 293 291 291 294 294 293 291 291 291 291 291 291 292 290 290 291 291 292 292 292 292 293 292 291
Wind_Speed
24 26 27 22 19 18 17 19 18 17 20 14 14 15 15 16 18 17 17 16 16 15 15 15 14 14 12 12 13 14 14 15 16 15 17 18 20 23
25 25 27 25 23 23 23 21 22 20 17 13 19 15 12 15 17 17 18 19 15 15 17 15 15 15 14 14 15 17 16 16 18 18 19 20 22 24
28 26 27 26 26 27 29 25 25 25 23 21 16 21 17 16 18 18 18 18 16 17 18 16 16 16 16 16 16 18 18 19 20 20 21 22 24 26
30 29 28 29 30 28 32 27 29 29 26 26 23 23 22 19 21 19 16 17 17 19 18 17 18 18 17 18 18 19 20 21 23 22 23 25 25 28
33 31 32 31 34 33 35 32 31 32 30 28 26 22 21 21 21 19 16 17 18 19 21 19 19 20 19 19 20 20 21 22 24 25 25 27 27 29
33 33 35 34 34 35 35 33 32 32 32 30 25 24 21 19 19 18 18 19 19 18 20 19 19 20 20 21 21 21 21 23 24 25 26 28 29 30
39 37 37 36 35 35 35 33 31 32 34 32 30 26 24 20 23 19 17 14 17 19 19 20 19 20 20 19 19 19 18 20 23 25 26 28 29 30
42 41 40 38 37 38 37 32 30 32 35 36 32 31 25 22 19 18 16 17 17 20 19 19 19 19 17 18 20 20 19 21 22 25 26 28 29 30
31 30 32 33 32 35 35 34 34 34 33 34 30 25 20 22 20 17 18 18 16 15 14 15 13 17 16 13 20 19 21 22 22 24 25 27 29 31
31 34 35 34 33 31 33 37 36 35 34 32 25 17 18 19 22 20 18 16 13 15 18 16 14 15 17 17 21 21 20 21 21 20 25 27 29 32
33 36 34 33 32 30 34 37 35 37 33 28 27 23 22 22 20 20 19 17 20 20 20 17 17 19 19 19 19 22 20 18 22 22 24 26 28 31
35 38 37 35 29 28 37 40 39 35 32 26 20 20 23 21 20 19 16 17 14 15 17 17 16 14 14 16 13 20 24 24 26 25 24 25 27 31
33 34 32 31 30 30 37 34 33 30 21 17 19 22 22 21 21 20 18 15 14 13 12 13 14 14 16 20 21 21 22 23 24 26 25 26 24 29
23 20 20 21 22 25 32 30 26 20 17 18 21 21 19 19 19 19 19 19 18 16 18 17 17 15 17 21 23 22 24 26 27 28 28 27 27 25
17 16 18 20 23 27 28 27 25 23 19 21 19 18 17 17 17 19 21 19 19 19 20 19 17 17 19 20 24 25 26 28 25 23 25 28 29 27
19 20 21 22 25 25 27 27 25 26 25 19 17 16 18 19 19 18 17 17 17 17 16 14 14 16 18 19 23 27 25 24 27 27 27 27 29 30
21 22 24 26 27 28 28 28 27 26 22 20 18 18 19 17 17 18 16 15 14 13 12 13 15 16 18 22 24 26 28 28 29 30 29 29 29 30
16 19 22 24 26 28 27 26 25 25 22 19 18 19 17 16 16 16 14 14 14 13 13 13 16 19 24 25 26 29 27 29 29 30 31 34 34 31
12 14 16 19 21 22 24 24 22 20 18 19 20 19 19 18 17 17 17 16 16 16 17 18 21 23 26 28 30 27 27 29 28 32 31 27 27 28
7 10 13 15 18 20 21 23 22 20 20 21 22 20 19 17 19 20 19 18 18 20 19 20 22 23 23 25 28 32 25 27 26 31 31 27 25 25
8 6 6 10 11 12 14 16 17 19 20 22 24 22 18 20 20 20 19 17 18 19 20 21 18 19 23 24 28 29 25 22 24 27 30 29 33 32
5 5 6 6 6 6 4 4 5 7 7 9 8 12 12 12 15 17 17 18 18 18 19 20 21 19 21 26 30 29 28 25 24 22 20 21 25 26
3 3 3 4 3 3 4 5 4 2 3 4 5 8 9 10 9 9 11 14 15 15 16 17 18 16 20 23 24 25 27 26 25 27 22 20 26 28
Wind_Direction
229 227 228 219 222 232 221 230 234 209 224 236 226 238 234 230 238 250 251 253 253 255 251 252 253 255 258 265 271 276 281 289 291 298 300 306 312 313
229 231 233 230 230 231 238 239 239 240 227 226 221 247 229 229 241 251 249 254 256 253 253 256 257 259 263 267 272 273 279 287 288 293 297 305 311 312
232 233 235 231 226 230 249 245 240 242 240 232 219 230 238 228 232 248 252 258 259 252 255 257 262 265 268 271 272 276 280 285 289 292 298 302 305 312
231 231 228 230 229 224 249 251 245 245 243 240 221 234 238 244 234 248 249 249 258 262 255 256 263 269 274 274 274 277 282 285 287 293 299 300 304 308
235 235 241 232 238 242 249 253 249 246 243 242 231 234 244 235 228 236 248 242 246 248 260 263 264 270 278 281 278 278 282 286 288 289 296 300 300 305
233 239 246 248 249 249 251 254 252 246 241 239 229 217 225 233 228 229 237 245 242 244 263 265 263 270 275 280 279 279 283 284 287 290 294 297 299 305
238 244 247 251 255 255 255 258 259 246 240 233 232 218 226 218 228 228 236 244 255 237 237 257 273 276 276 276 278 280 280 282 287 290 294 296 298 303
238 245 249 252 253 252 259 260 257 252 242 230 231 228 220 222 237 225 233 216 221 253 257 249 250 262 269 264 282 293 290 287 290 293 295 296 299 302
247 252 253 258 258 258 256 249 245 241 237 234 226 219 217 226 234 232 218 226 228 241 254 260 257 265 274 270 278 291 291 291 292 294 296 297 300 303
256 259 259 263 262 259 251 241 237 232 230 221 216 210 220 219 233 231 231 237 218 232 247 256 259 259 258 273 287 293 291 290 290 294 298 299 303 303
258 259 257 259 261 254 246 237 230 229 224 222 217 214 226 234 237 223 221 218 223 237 256 258 258 266 279 288 290 292 297 295 294 301 302 303 304 305
253 253 255 260 261 255 245 237 223 216 212 211 214 222 231 230 229 232 228 226 230 247 248 259 267 275 294 297 298 305 310 310 309 312 310 312 313 312
247 251 252 253 251 248 228 218 212 208 209 200 213 220 226 228 230 227 220 230 224 239 260 265 269 276 281 290 298 302 306 306 308 310 307 313 303 302
234 241 248 246 239 221 214 211 212 196 188 204 213 222 228 230 230 229 230 229 225 227 249 257 269 282 288 293 298 311 307 306 307 307 308 310 309 304
222 243 238 219 212 211 216 219 207 193 193 207 214 221 226 233 231 227 231 233 240 242 252 268 274 280 281 288 294 303 304 310 311 311 309 305 310 306
216 213 216 218 219 212 212 202 197 200 201 205 217 224 227 225 228 233 236 240 246 256 264 270 275 278 285 293 294 300 307 302 310 310 309 301 297 295
212 208 209 212 214 209 204 204 201 200 198 206 216 222 229 228 226 232 233 240 246 254 267 286 293 295 296 298 294 301 309 313 313 316 313 308 303 299
206 210 210 212 210 206 201 199 202 207 199 204 218 224 229 228 224 231 230 239 248 252 257 259 266 284 287 286 293 301 305 309 314 314 310 304 301 305
202 205 213 212 211 208 207 211 212 205 205 203 215 214 208 218 232 237 245 249 256 266 271 281 289 287 286 291 299 301 306 314 314 309 311 306 297 301
169 188 191 203 206 212 215 216 212 210 211 215 215 216 224 242 247 248 251 257 263 266 274 283 284 286 288 292 295 301 312 307 310 313 313 305 298 298
90 128 177 185 192 209 218 222 226 226 228 232 233 231 231 242 248 252 257 263 267 271 279 285 291 286 290 290 292 300 308 306 307 313 309 297 297 304
107 134 139 147 138 132 153 180 184 204 214 234 240 251 249 253 258 263 266 269 274 279 285 286 286 278 278 286 292 299 306 306 303 308 310 305 303 295
140 99 112 104 100 114 145 161 159 210 202 224 202 261 261 251 256 267 287 293 292 291 292 289 296 289 281 290 290 299 304 307 307 312 310 295 289 295